Time,TemperatureF,DewpointF,PressureIn,WindDirection,WindDirectionDegrees,WindSpeedMPH,WindSpeedGustMPH,Humidity,HourlyPrecipIn,Conditions,Clouds,dailyrainin,SoftwareType,DateUTC
2013-01-28 00:01:00,11.1,3.6,30.47,West,273,2.0,2.0,71,0.00,,,0.00,meteohub,2013-01-28 05:01:00,
2013-01-28 00:02:00,11.1,4.1,30.47,WNW,302,1.0,2.0,73,0.00,,,0.00,meteohub,2013-01-28 05:02:00,
2013-01-28 00:07:00,10.9,3.0,30.46,WNW,302,0.0,3.0,70,0.00,,,0.00,meteohub,2013-01-28 05:07:00,
2013-01-28 00:10:00,10.9,2.8,30.46,WNW,302,0.0,3.0,69,0.00,,,0.00,meteohub,2013-01-28 05:10:00,
2013-01-28 00:15:00,11.1,3.2,30.46,SSE,155,0.0,3.0,70,0.00,,,0.00,meteohub,2013-01-28 05:15:00,
2013-01-28 00:20:00,10.9,3.0,30.45,SSE,150,0.0,3.0,70,0.00,,,0.00,meteohub,2013-01-28 05:20:00,
2013-01-28 00:25:00,10.9,3.0,30.46,SSE,150,0.0,2.0,70,0.00,,,0.00,meteohub,2013-01-28 05:25:00,
2013-01-28 00:30:00,10.8,2.8,30.46,North,10,2.0,2.0,70,0.00,,,0.00,meteohub,2013-01-28 05:30:00,
2013-01-28 00:35:00,10.4,2.8,30.46,SSE,159,0.0,2.0,71,0.00,,,0.00,meteohub,2013-01-28 05:35:00,
2013-01-28 00:40:00,10.2,3.0,30.47,WSW,251,0.0,2.0,72,0.00,,,0.00,meteohub,2013-01-28 05:40:00,
2013-01-28 00:45:00,10.2,2.7,30.46,WSW,251,0.0,2.0,71,0.00,,,0.00,meteohub,2013-01-28 05:45:00,
2013-01-28 00:50:00,10.0,2.8,30.47,WSW,251,0.0,2.0,72,0.00,,,0.00,meteohub,2013-01-28 05:50:00,
2013-01-28 00:55:00,10.0,2.8,30.47,WSW,251,0.0,0.0,72,0.00,,,0.00,meteohub,2013-01-28 05:55:00,
2013-01-28 01:00:00,10.0,3.2,30.47,WSW,251,0.0,0.0,73,0.00,,,0.00,meteohub,2013-01-28 06:00:00,
2013-01-28 01:05:00,10.0,3.4,30.47,WSW,251,0.0,0.0,74,0.00,,,0.00,meteohub,2013-01-28 06:05:00,
2013-01-28 01:10:00,10.0,3.2,30.47,WSW,251,0.0,0.0,73,0.00,,,0.00,meteohub,2013-01-28 06:10:00,
2013-01-28 01:15:00,10.2,3.6,30.48,WSW,251,0.0,0.0,74,0.00,,,0.00,meteohub,2013-01-28 06:15:00,
2013-01-28 01:20:00,10.2,3.6,30.48,WSW,251,0.0,0.0,74,0.00,,,0.00,meteohub,2013-01-28 06:20:00,
2013-01-28 01:26:00,10.6,3.9,30.47,WSW,251,0.0,1.0,74,0.00,,,0.00,meteohub,2013-01-28 06:26:00,
2013-01-28 01:31:00,10.6,3.6,30.47,WSW,251,0.0,1.0,73,0.00,,,0.00,meteohub,2013-01-28 06:31:00,
2013-01-28 01:36:00,10.8,3.6,30.47,WSW,251,0.0,1.0,72,0.00,,,0.00,meteohub,2013-01-28 06:36:00,
2013-01-28 01:41:00,11.1,4.1,30.47,WSW,251,0.0,1.0,73,0.00,,,0.00,meteohub,2013-01-28 06:41:00,
2013-01-28 01:46:00,11.3,4.1,30.46,WSW,251,0.0,1.0,72,0.00,,,0.00,meteohub,2013-01-28 06:46:00,
2013-01-28 01:51:00,11.5,4.5,30.46,WSW,251,0.0,1.0,73,0.00,,,0.00,meteohub,2013-01-28 06:51:00,
2013-01-28 01:56:00,11.8,4.8,30.47,WNW,299,0.0,2.0,73,0.00,,,0.00,meteohub,2013-01-28 06:56:00,
2013-01-28 02:01:00,11.8,4.8,30.46,WNW,299,0.0,2.0,73,0.00,,,0.00,meteohub,2013-01-28 07:01:00,
2013-01-28 02:06:00,12.0,5.4,30.46,WNW,299,0.0,2.0,74,0.00,,,0.00,meteohub,2013-01-28 07:06:00,
2013-01-28 02:11:00,12.0,5.0,30.46,WNW,303,0.0,1.0,73,0.00,,,0.00,meteohub,2013-01-28 07:11:00,
2013-01-28 02:16:00,12.2,5.2,30.45,WSW,238,0.0,1.0,73,0.00,,,0.00,meteohub,2013-01-28 07:16:00,
2013-01-28 02:21:00,12.0,5.0,30.45,WSW,238,0.0,1.0,73,0.00,,,0.00,meteohub,2013-01-28 07:21:00,
2013-01-28 02:26:00,12.0,5.0,30.45,WSW,238,0.0,1.0,73,0.00,,,0.00,meteohub,2013-01-28 07:26:00,
2013-01-28 02:31:00,11.8,5.2,30.45,SSW,210,1.0,1.0,74,0.00,,,0.00,meteohub,2013-01-28 07:31:00,
2013-01-28 02:36:00,11.8,5.5,30.45,SSW,210,0.0,1.0,75,0.00,,,0.00,meteohub,2013-01-28 07:36:00,
2013-01-28 02:41:00,11.8,5.5,30.45,SSW,210,0.0,1.0,75,0.00,,,0.00,meteohub,2013-01-28 07:41:00,
2013-01-28 02:46:00,11.8,5.5,30.45,SSW,210,0.0,1.0,75,0.00,,,0.00,meteohub,2013-01-28 07:46:00,
2013-01-28 02:51:00,11.8,6.1,30.45,SSW,209,0.0,0.0,77,0.00,,,0.00,meteohub,2013-01-28 07:51:00,
2013-01-28 02:57:00,12.0,5.9,30.45,SSW,209,0.0,1.0,76,0.00,,,0.00,meteohub,2013-01-28 07:57:00,
2013-01-28 03:02:00,12.2,5.7,30.44,SSW,209,0.0,1.0,75,0.00,,,0.00,meteohub,2013-01-28 08:02:00,
2013-01-28 03:07:00,12.4,5.9,30.45,WSW,258,0.0,1.0,75,0.00,,,0.00,meteohub,2013-01-28 08:07:00,
2013-01-28 03:12:00,12.4,5.9,30.45,North,359,1.0,1.0,75,0.00,,,0.00,meteohub,2013-01-28 08:12:00,
2013-01-28 03:17:00,12.4,5.9,30.44,NNW,341,0.0,2.0,75,0.00,,,0.00,meteohub,2013-01-28 08:17:00,
2013-01-28 03:22:00,12.4,5.7,30.44,NNW,341,0.0,2.0,74,0.00,,,0.00,meteohub,2013-01-28 08:22:00,
2013-01-28 03:27:00,12.4,6.3,30.43,NNW,341,0.0,2.0,76,0.00,,,0.00,meteohub,2013-01-28 08:27:00,
2013-01-28 03:32:00,12.4,5.9,30.43,NNW,341,0.0,0.0,75,0.00,,,0.00,meteohub,2013-01-28 08:32:00,
2013-01-28 03:37:00,12.6,6.1,30.43,NNW,341,0.0,1.0,75,0.00,,,0.00,meteohub,2013-01-28 08:37:00,
2013-01-28 03:42:00,12.7,6.3,30.43,NNW,341,0.0,1.0,75,0.00,,,0.00,meteohub,2013-01-28 08:42:00,
2013-01-28 03:47:00,12.6,5.5,30.43,NNW,341,0.0,1.0,73,0.00,,,0.00,meteohub,2013-01-28 08:47:00,
2013-01-28 03:52:00,12.6,5.5,30.43,NNW,341,0.0,1.0,73,0.00,,,0.00,meteohub,2013-01-28 08:52:00,
2013-01-28 03:57:00,12.4,5.4,30.43,NNW,341,0.0,1.0,73,0.00,,,0.00,meteohub,2013-01-28 08:57:00,
2013-01-28 04:02:00,12.0,5.4,30.43,NNW,341,0.0,0.0,74,0.00,,,0.00,meteohub,2013-01-28 09:02:00,
2013-01-28 04:08:00,11.8,5.2,30.43,NNW,341,0.0,0.0,74,0.00,,,0.00,meteohub,2013-01-28 09:08:00,
2013-01-28 04:13:00,11.7,5.0,30.43,NNW,341,0.0,0.0,74,0.00,,,0.00,meteohub,2013-01-28 09:13:00,
2013-01-28 04:18:00,11.5,5.2,30.43,NNW,341,0.0,0.0,75,0.00,,,0.00,meteohub,2013-01-28 09:18:00,
2013-01-28 04:23:00,11.3,5.0,30.42,NNW,341,0.0,0.0,75,0.00,,,0.00,meteohub,2013-01-28 09:23:00,
2013-01-28 04:28:00,10.9,4.8,30.42,NNW,341,0.0,0.0,76,0.00,,,0.00,meteohub,2013-01-28 09:28:00,
2013-01-28 04:33:00,10.8,4.5,30.42,NNW,341,0.0,2.0,75,0.00,,,0.00,meteohub,2013-01-28 09:33:00,
2013-01-28 04:38:00,10.8,4.6,30.42,NNW,341,0.0,2.0,76,0.00,,,0.00,meteohub,2013-01-28 09:38:00,
2013-01-28 04:43:00,10.6,4.5,30.42,NNW,341,0.0,2.0,76,0.00,,,0.00,meteohub,2013-01-28 09:43:00,
2013-01-28 04:48:00,10.6,4.3,30.42,NNW,341,0.0,1.0,75,0.00,,,0.00,meteohub,2013-01-28 09:48:00,
2013-01-28 04:53:00,10.4,4.1,30.42,NNW,341,0.0,1.0,75,0.00,,,0.00,meteohub,2013-01-28 09:53:00,
2013-01-28 04:58:00,10.4,4.3,30.42,NNW,341,0.0,0.0,76,0.00,,,0.00,meteohub,2013-01-28 09:58:00,
2013-01-28 05:03:00,10.2,4.5,30.42,NNW,341,0.0,0.0,77,0.00,,,0.00,meteohub,2013-01-28 10:03:00,
2013-01-28 05:08:00,10.2,4.5,30.41,NNW,341,0.0,0.0,77,0.00,,,0.00,meteohub,2013-01-28 10:08:00,
2013-01-28 05:13:00,10.0,3.9,30.41,NNW,341,0.0,0.0,76,0.00,,,0.00,meteohub,2013-01-28 10:13:00,
2013-01-28 05:18:00,10.0,4.3,30.41,NNW,341,0.0,0.0,77,0.00,,,0.00,meteohub,2013-01-28 10:18:00,
2013-01-28 05:23:00,10.0,4.3,30.41,North,356,0.0,0.0,77,0.00,,,0.00,meteohub,2013-01-28 10:23:00,
2013-01-28 05:28:00,10.0,4.6,30.41,North,356,0.0,0.0,78,0.00,,,0.00,meteohub,2013-01-28 10:28:00,
2013-01-28 05:34:00,10.0,4.6,30.41,North,356,0.0,0.0,78,0.00,,,0.00,meteohub,2013-01-28 10:34:00,
2013-01-28 05:39:00,10.2,4.5,30.41,North,0,0.0,0.0,77,0.00,,,0.00,meteohub,2013-01-28 10:39:00,
2013-01-28 05:44:00,10.2,4.5,30.41,North,0,0.0,0.0,77,0.00,,,0.00,meteohub,2013-01-28 10:44:00,
2013-01-28 05:49:00,10.2,4.8,30.41,North,0,0.0,1.0,78,0.00,,,0.00,meteohub,2013-01-28 10:49:00,
2013-01-28 05:54:00,10.2,4.8,30.41,North,0,0.0,1.0,78,0.00,,,0.00,meteohub,2013-01-28 10:54:00,
2013-01-28 05:59:00,10.2,4.8,30.41,North,0,0.0,0.0,78,0.00,,,0.00,meteohub,2013-01-28 10:59:00,
2013-01-28 06:04:00,10.2,4.5,30.40,North,0,1.0,0.0,77,0.00,,,0.00,meteohub,2013-01-28 11:04:00,
2013-01-28 06:09:00,10.6,5.0,30.41,North,0,1.0,1.0,78,0.00,,,0.00,meteohub,2013-01-28 11:09:00,
2013-01-28 06:14:00,10.8,5.5,30.40,NNW,334,1.0,2.0,79,0.00,,,0.00,meteohub,2013-01-28 11:14:00,
2013-01-28 06:19:00,10.8,5.5,30.40,NNW,334,0.0,2.0,79,0.00,,,0.00,meteohub,2013-01-28 11:19:00,
2013-01-28 06:24:00,10.9,5.4,30.40,NNW,334,1.0,2.0,78,0.00,,,0.00,meteohub,2013-01-28 11:24:00,
2013-01-28 06:29:00,10.9,5.2,30.40,NNW,331,0.0,2.0,77,0.00,,,0.00,meteohub,2013-01-28 11:29:00,
2013-01-28 06:34:00,11.1,5.5,30.41,NNW,331,0.0,2.0,78,0.00,,,0.00,meteohub,2013-01-28 11:34:00,
2013-01-28 06:39:00,11.1,5.5,30.41,East,98,1.0,1.0,78,0.00,,,0.00,meteohub,2013-01-28 11:39:00,
2013-01-28 06:44:00,11.3,5.7,30.41,ESE,118,2.0,2.0,78,0.00,,,0.00,meteohub,2013-01-28 11:44:00,
2013-01-28 06:49:00,11.5,5.9,30.41,ESE,122,0.0,2.0,78,0.00,,,0.00,meteohub,2013-01-28 11:49:00,
2013-01-28 06:54:00,11.5,5.9,30.41,ESE,122,0.0,2.0,78,0.00,,,0.00,meteohub,2013-01-28 11:54:00,
2013-01-28 06:59:00,11.7,5.9,30.41,ESE,122,0.0,2.0,77,0.00,,,0.00,meteohub,2013-01-28 11:59:00,
2013-01-28 07:04:00,11.7,5.5,30.41,ESE,122,0.0,1.0,76,0.00,,,0.00,meteohub,2013-01-28 12:04:00,
2013-01-28 07:09:00,11.7,5.5,30.41,ESE,122,0.0,1.0,76,0.00,,,0.00,meteohub,2013-01-28 12:09:00,
2013-01-28 07:15:00,11.7,5.5,30.41,ESE,122,0.0,1.0,76,0.00,,,0.00,meteohub,2013-01-28 12:15:00,
2013-01-28 07:20:00,11.8,5.7,30.41,ESE,122,0.0,2.0,76,0.00,,,0.00,meteohub,2013-01-28 12:20:00,
2013-01-28 07:25:00,11.8,5.5,30.41,ESE,122,0.0,2.0,75,0.00,,,0.00,meteohub,2013-01-28 12:25:00,
2013-01-28 07:30:00,11.8,5.5,30.41,ESE,121,0.0,2.0,75,0.00,,,0.00,meteohub,2013-01-28 12:30:00,
2013-01-28 07:35:00,12.0,5.4,30.41,ESE,121,0.0,1.0,74,0.00,,,0.00,meteohub,2013-01-28 12:35:00,
2013-01-28 07:40:00,12.0,5.4,30.40,ESE,122,0.0,1.0,74,0.00,,,0.00,meteohub,2013-01-28 12:40:00,
2013-01-28 07:45:00,12.4,5.4,30.40,ESE,122,0.0,1.0,73,0.00,,,0.00,meteohub,2013-01-28 12:45:00,
2013-01-28 07:50:00,12.4,5.7,30.40,ESE,122,1.0,2.0,74,0.00,,,0.00,meteohub,2013-01-28 12:50:00,
2013-01-28 07:55:00,12.6,5.9,30.40,ESE,123,1.0,2.0,74,0.00,,,0.00,meteohub,2013-01-28 12:55:00,
2013-01-28 08:00:00,12.7,5.7,30.40,ESE,123,0.0,2.0,73,0.00,,,0.00,meteohub,2013-01-28 13:00:00,
2013-01-28 08:05:00,12.7,5.2,30.40,ESE,123,1.0,2.0,71,0.00,,,0.00,meteohub,2013-01-28 13:05:00,
2013-01-28 08:10:00,12.9,5.0,30.40,ESE,123,0.0,2.0,70,0.00,,,0.00,meteohub,2013-01-28 13:10:00,
2013-01-28 08:15:00,13.1,5.5,30.40,ESE,123,0.0,2.0,71,0.00,,,0.00,meteohub,2013-01-28 13:15:00,
2013-01-28 08:20:00,13.3,5.7,30.40,ESE,123,0.0,2.0,71,0.00,,,0.00,meteohub,2013-01-28 13:20:00,
2013-01-28 08:25:00,13.5,5.2,30.40,ESE,123,0.0,2.0,69,0.00,,,0.00,meteohub,2013-01-28 13:25:00,
2013-01-28 08:30:00,13.6,5.4,30.40,ESE,122,0.0,1.0,69,0.00,,,0.00,meteohub,2013-01-28 13:30:00,
2013-01-28 08:35:00,13.8,5.2,30.40,ESE,122,0.0,1.0,68,0.00,,,0.00,meteohub,2013-01-28 13:35:00,
2013-01-28 08:40:00,14.0,5.7,30.40,ESE,122,1.0,1.0,69,0.00,,,0.00,meteohub,2013-01-28 13:40:00,
2013-01-28 08:45:00,14.2,5.5,30.40,ESE,122,1.0,2.0,68,0.00,,,0.00,meteohub,2013-01-28 13:45:00,
2013-01-28 08:50:00,14.2,5.2,30.40,ESE,122,0.0,2.0,67,0.00,,,0.00,meteohub,2013-01-28 13:50:00,
2013-01-28 08:56:00,14.4,5.7,30.40,ESE,122,0.0,2.0,68,0.00,,,0.00,meteohub,2013-01-28 13:56:00,
2013-01-28 09:01:00,14.5,5.2,30.40,ESE,122,0.0,2.0,66,0.00,,,0.00,meteohub,2013-01-28 14:01:00,
2013-01-28 09:06:00,14.5,5.2,30.40,ESE,115,0.0,2.0,66,0.00,,,0.00,meteohub,2013-01-28 14:06:00,
2013-01-28 09:11:00,14.7,5.4,30.40,SE,124,2.0,2.0,66,0.00,,,0.00,meteohub,2013-01-28 14:11:00,
2013-01-28 09:16:00,15.1,6.1,30.39,SE,124,0.0,2.0,67,0.00,,,0.00,meteohub,2013-01-28 14:16:00,
2013-01-28 09:21:00,15.1,5.4,30.39,ESE,117,0.0,2.0,65,0.00,,,0.00,meteohub,2013-01-28 14:21:00,
2013-01-28 09:26:00,15.3,5.4,30.39,ESE,117,0.0,2.0,64,0.00,,,0.00,meteohub,2013-01-28 14:26:00,
2013-01-28 09:31:00,15.4,5.4,30.39,ESE,117,0.0,2.0,64,0.00,,,0.00,meteohub,2013-01-28 14:31:00,
2013-01-28 09:36:00,15.6,5.5,30.38,ESE,116,0.0,1.0,64,0.00,,,0.00,meteohub,2013-01-28 14:36:00,
2013-01-28 09:41:00,15.8,5.7,30.38,ESE,117,0.0,0.0,64,0.00,,,0.00,meteohub,2013-01-28 14:41:00,
2013-01-28 09:46:00,16.0,5.2,30.37,ESE,117,0.0,0.0,62,0.00,,,0.00,meteohub,2013-01-28 14:46:00,
2013-01-28 09:51:00,16.0,4.8,30.37,ESE,117,0.0,1.0,61,0.00,,,0.00,meteohub,2013-01-28 14:51:00,
2013-01-28 09:56:00,16.2,5.0,30.37,ESE,117,0.0,1.0,61,0.00,,,0.00,meteohub,2013-01-28 14:56:00,
2013-01-28 10:01:00,16.3,5.9,30.37,ESE,117,1.0,1.0,63,0.00,,,0.00,meteohub,2013-01-28 15:01:00,
2013-01-28 10:06:00,16.3,7.3,30.36,ESE,118,0.0,2.0,67,0.00,,,0.00,meteohub,2013-01-28 15:06:00,
2013-01-28 10:11:00,16.3,8.2,30.36,SE,128,1.0,3.0,70,0.00,,,0.00,meteohub,2013-01-28 15:11:00,
2013-01-28 10:16:00,16.3,9.1,30.36,SE,130,0.0,3.0,73,0.00,,,0.00,meteohub,2013-01-28 15:16:00,
2013-01-28 10:21:00,16.3,9.5,30.37,SE,130,0.0,1.0,74,0.00,,,0.00,meteohub,2013-01-28 15:21:00,
2013-01-28 10:27:00,16.2,9.9,30.36,SE,130,0.0,1.0,76,0.00,,,0.00,meteohub,2013-01-28 15:27:00,
2013-01-28 10:32:00,16.2,10.2,30.36,SE,128,0.0,1.0,77,0.00,,,0.00,meteohub,2013-01-28 15:32:00,
2013-01-28 10:37:00,16.2,10.8,30.35,ENE,73,0.0,2.0,79,0.00,,,0.00,meteohub,2013-01-28 15:37:00,
2013-01-28 10:42:00,16.0,10.6,30.35,NE,37,0.0,2.0,79,0.00,,,0.00,meteohub,2013-01-28 15:42:00,
2013-01-28 10:47:00,15.8,10.8,30.35,NNE,19,1.0,2.0,80,0.00,,,0.00,meteohub,2013-01-28 15:47:00,
2013-01-28 10:52:00,15.4,10.6,30.34,North,354,1.0,2.0,81,0.00,,,0.00,meteohub,2013-01-28 15:52:00,
2013-01-28 10:57:00,15.4,10.9,30.34,North,354,0.0,2.0,82,0.00,,,0.00,meteohub,2013-01-28 15:57:00,
2013-01-28 11:02:00,15.4,11.1,30.34,North,354,0.0,2.0,83,0.00,,,0.00,meteohub,2013-01-28 16:02:00,
2013-01-28 11:07:00,15.4,11.1,30.33,North,354,0.0,2.0,83,0.00,,,0.00,meteohub,2013-01-28 16:07:00,
2013-01-28 11:12:00,15.4,11.5,30.32,North,354,0.0,1.0,84,0.00,,,0.00,meteohub,2013-01-28 16:12:00,
2013-01-28 11:17:00,15.6,11.7,30.32,North,354,0.0,1.0,84,0.00,,,0.00,meteohub,2013-01-28 16:17:00,
2013-01-28 11:22:00,16.0,12.0,30.31,North,354,0.0,0.0,84,0.00,,,0.00,meteohub,2013-01-28 16:22:00,
2013-01-28 11:27:00,16.2,12.4,30.32,North,354,0.0,0.0,85,0.00,,,0.00,meteohub,2013-01-28 16:27:00,
2013-01-28 11:32:00,16.3,12.6,30.32,North,357,0.0,0.0,85,0.00,,,0.00,meteohub,2013-01-28 16:32:00,
2013-01-28 11:37:00,16.5,12.7,30.32,East,87,0.0,1.0,85,0.00,,,0.00,meteohub,2013-01-28 16:37:00,
2013-01-28 11:42:00,16.7,12.9,30.32,East,87,0.0,1.0,85,0.00,,,0.00,meteohub,2013-01-28 16:42:00,
2013-01-28 11:47:00,16.9,13.1,30.31,East,87,0.0,1.0,85,0.00,,,0.00,meteohub,2013-01-28 16:47:00,
2013-01-28 11:52:00,16.9,13.1,30.31,East,87,0.0,1.0,85,0.00,,,0.00,meteohub,2013-01-28 16:52:00,
2013-01-28 11:57:00,17.1,13.3,30.30,East,87,0.0,1.0,85,0.00,,,0.00,meteohub,2013-01-28 16:57:00,
2013-01-28 12:02:00,17.1,13.3,30.29,East,87,0.0,0.0,85,0.00,,,0.00,meteohub,2013-01-28 17:02:00,
2013-01-28 12:07:00,17.1,13.3,30.28,NNE,27,0.0,1.0,85,0.00,,,0.00,meteohub,2013-01-28 17:07:00,
2013-01-28 12:12:00,16.9,13.5,30.27,NNE,27,0.0,1.0,86,0.00,,,0.00,meteohub,2013-01-28 17:12:00,
2013-01-28 12:17:00,16.9,13.5,30.27,NNE,27,0.0,1.0,86,0.00,,,0.00,meteohub,2013-01-28 17:17:00,
2013-01-28 12:22:00,16.9,13.6,30.26,NNE,27,0.0,1.0,87,0.00,,,0.00,meteohub,2013-01-28 17:22:00,
2013-01-28 12:27:00,17.1,13.8,30.26,ENE,74,0.0,0.0,87,0.00,,,0.00,meteohub,2013-01-28 17:27:00,
2013-01-28 12:32:00,17.2,14.0,30.25,ESE,109,0.0,2.0,87,0.00,,,0.00,meteohub,2013-01-28 17:32:00,
2013-01-28 12:37:00,17.4,14.2,30.24,ESE,113,0.0,2.0,87,0.00,,,0.00,meteohub,2013-01-28 17:37:00,
2013-01-28 12:42:00,17.8,14.0,30.23,SE,131,0.0,2.0,85,0.00,,,0.00,meteohub,2013-01-28 17:42:00,
2013-01-28 12:47:00,17.8,14.0,30.23,SE,141,1.0,3.0,85,0.00,,,0.00,meteohub,2013-01-28 17:47:00,
2013-01-28 12:52:00,18.0,14.2,30.22,SE,128,0.0,3.0,85,0.00,,,0.00,meteohub,2013-01-28 17:52:00,
2013-01-28 12:57:00,18.1,14.2,30.22,ESE,110,1.0,3.0,84,0.00,,,0.00,meteohub,2013-01-28 17:57:00,
2013-01-28 13:02:00,18.1,14.2,30.22,NE,54,0.0,3.0,84,0.00,,,0.00,meteohub,2013-01-28 18:02:00,
2013-01-28 13:07:00,18.1,14.2,30.22,NE,54,0.0,2.0,84,0.00,,,0.00,meteohub,2013-01-28 18:07:00,
2013-01-28 13:12:00,18.3,14.5,30.20,East,101,0.0,2.0,85,0.00,,,0.00,meteohub,2013-01-28 18:12:00,
2013-01-28 13:17:00,18.3,14.4,30.19,ESE,112,1.0,1.0,84,0.00,,,0.00,meteohub,2013-01-28 18:17:00,
2013-01-28 13:22:00,18.5,14.2,30.19,ESE,111,0.0,2.0,83,0.00,,,0.00,meteohub,2013-01-28 18:22:00,
2013-01-28 13:27:00,18.5,14.2,30.19,ESE,111,0.0,2.0,83,0.00,,,0.00,meteohub,2013-01-28 18:27:00,
2013-01-28 13:32:00,18.3,14.0,30.19,East,93,0.0,2.0,83,0.00,,,0.00,meteohub,2013-01-28 18:32:00,
2013-01-28 13:37:00,18.3,14.4,30.18,SE,125,0.0,3.0,84,0.00,,,0.00,meteohub,2013-01-28 18:37:00,
2013-01-28 13:42:00,18.5,14.5,30.18,ESE,117,0.0,3.0,84,0.00,,,0.00,meteohub,2013-01-28 18:42:00,
2013-01-28 13:47:00,18.5,14.5,30.17,SE,130,0.0,3.0,84,0.00,,,0.00,meteohub,2013-01-28 18:47:00,
2013-01-28 13:52:00,18.3,14.4,30.17,ESE,122,0.0,3.0,84,0.00,,,0.00,meteohub,2013-01-28 18:52:00,
2013-01-28 13:57:00,18.3,14.4,30.17,SE,124,0.0,2.0,84,0.00,,,0.00,meteohub,2013-01-28 18:57:00,
2013-01-28 14:02:00,18.3,14.5,30.17,SE,124,0.0,2.0,85,0.00,,,0.00,meteohub,2013-01-28 19:02:00,
2013-01-28 14:07:00,18.3,14.5,30.17,SE,124,0.0,2.0,85,0.00,,,0.00,meteohub,2013-01-28 19:07:00,
2013-01-28 14:12:00,18.5,15.1,30.17,SE,124,0.0,1.0,86,0.00,,,0.00,meteohub,2013-01-28 19:12:00,
2013-01-28 14:17:00,18.5,14.7,30.17,SE,133,0.0,1.0,85,0.00,,,0.00,meteohub,2013-01-28 19:17:00,
2013-01-28 14:22:00,18.5,14.7,30.17,SE,133,0.0,1.0,85,0.00,,,0.00,meteohub,2013-01-28 19:22:00,
2013-01-28 14:27:00,18.3,14.5,30.17,SE,137,0.0,1.0,85,0.00,,,0.00,meteohub,2013-01-28 19:27:00,
2013-01-28 14:32:00,18.3,14.5,30.17,SE,137,0.0,2.0,85,0.00,,,0.00,meteohub,2013-01-28 19:32:00,
2013-01-28 14:37:00,18.3,14.5,30.18,SE,133,0.0,2.0,85,0.00,,,0.00,meteohub,2013-01-28 19:37:00,
2013-01-28 14:42:00,18.3,14.9,30.17,SE,133,0.0,2.0,86,0.00,,,0.00,meteohub,2013-01-28 19:42:00,
2013-01-28 14:47:00,18.3,14.9,30.17,SE,133,0.0,2.0,86,0.00,,,0.00,meteohub,2013-01-28 19:47:00,
2013-01-28 14:52:00,18.1,14.9,30.16,SE,134,0.0,0.0,87,0.00,,,0.00,meteohub,2013-01-28 19:52:00,
2013-01-28 14:57:00,18.1,14.9,30.16,SE,133,0.0,1.0,87,0.00,,,0.00,meteohub,2013-01-28 19:57:00,
2013-01-28 15:02:00,18.0,14.7,30.16,SE,135,0.0,1.0,87,0.00,,,0.00,meteohub,2013-01-28 20:02:00,
2013-01-28 15:07:00,18.0,14.7,30.15,SE,135,0.0,1.0,87,0.00,,,0.00,meteohub,2013-01-28 20:07:00,
2013-01-28 15:12:00,18.0,14.7,30.15,SE,135,0.0,1.0,87,0.00,,,0.00,meteohub,2013-01-28 20:12:00,
2013-01-28 15:17:00,18.0,15.1,30.15,SE,137,1.0,1.0,88,0.00,,,0.00,meteohub,2013-01-28 20:17:00,
2013-01-28 15:22:00,18.0,14.7,30.16,SSW,200,0.0,1.0,87,0.00,,,0.00,meteohub,2013-01-28 20:22:00,
2013-01-28 15:27:00,18.0,15.1,30.15,South,182,0.0,1.0,88,0.00,,,0.00,meteohub,2013-01-28 20:27:00,
2013-01-28 15:32:00,18.0,15.1,30.15,South,182,0.0,1.0,88,0.00,,,0.00,meteohub,2013-01-28 20:32:00,
2013-01-28 15:37:00,18.0,15.1,30.15,South,178,0.0,1.0,88,0.00,,,0.00,meteohub,2013-01-28 20:37:00,
2013-01-28 15:42:00,18.0,15.1,30.15,SSW,201,0.0,1.0,88,0.00,,,0.00,meteohub,2013-01-28 20:42:00,
2013-01-28 15:47:00,18.0,15.1,30.14,SSW,201,0.0,1.0,88,0.00,,,0.00,meteohub,2013-01-28 20:47:00,
2013-01-28 15:52:00,18.0,15.1,30.14,South,170,0.0,1.0,88,0.00,,,0.00,meteohub,2013-01-28 20:52:00,
2013-01-28 15:57:00,18.0,15.1,30.14,South,170,0.0,1.0,88,0.00,,,0.00,meteohub,2013-01-28 20:57:00,
2013-01-28 16:02:00,18.0,15.1,30.14,South,170,0.0,1.0,88,0.00,,,0.00,meteohub,2013-01-28 21:02:00,
2013-01-28 16:07:00,18.0,15.1,30.13,South,170,0.0,0.0,88,0.00,,,0.00,meteohub,2013-01-28 21:07:00,
2013-01-28 16:12:00,18.0,15.1,30.13,SE,126,0.0,0.0,88,0.00,,,0.00,meteohub,2013-01-28 21:12:00,
2013-01-28 16:17:00,18.0,15.1,30.13,SE,126,0.0,2.0,88,0.00,,,0.00,meteohub,2013-01-28 21:17:00,
2013-01-28 16:22:00,18.0,15.1,30.13,SE,124,0.0,2.0,88,0.00,,,0.00,meteohub,2013-01-28 21:22:00,
2013-01-28 16:27:00,18.0,15.1,30.13,SE,124,0.0,2.0,88,0.00,,,0.00,meteohub,2013-01-28 21:27:00,
2013-01-28 16:32:00,18.1,15.3,30.12,SE,124,0.0,1.0,88,0.00,,,0.00,meteohub,2013-01-28 21:32:00,
2013-01-28 16:37:00,18.1,15.3,30.12,NW,324,0.0,2.0,88,0.00,,,0.00,meteohub,2013-01-28 21:37:00,
2013-01-28 16:42:00,18.1,15.4,30.12,NW,324,0.0,2.0,89,0.00,,,0.00,meteohub,2013-01-28 21:42:00,
2013-01-28 16:47:00,18.1,15.4,30.12,NW,324,0.0,2.0,89,0.00,,,0.00,meteohub,2013-01-28 21:47:00,
2013-01-28 16:52:00,18.1,15.4,30.12,NW,324,0.0,1.0,89,0.00,,,0.00,meteohub,2013-01-28 21:52:00,
2013-01-28 16:57:00,18.1,15.4,30.11,NW,324,0.0,1.0,89,0.00,,,0.00,meteohub,2013-01-28 21:57:00,
2013-01-28 17:02:00,18.1,15.4,30.11,NW,324,0.0,0.0,89,0.00,,,0.00,meteohub,2013-01-28 22:02:00,
2013-01-28 17:07:00,18.1,15.4,30.11,NW,324,0.0,0.0,89,0.00,,,0.00,meteohub,2013-01-28 22:07:00,
2013-01-28 17:12:00,18.1,15.4,30.10,NW,324,0.0,2.0,89,0.00,,,0.00,meteohub,2013-01-28 22:12:00,
2013-01-28 17:17:00,18.1,15.4,30.10,NW,324,0.0,2.0,89,0.00,,,0.00,meteohub,2013-01-28 22:17:00,
2013-01-28 17:22:00,18.1,15.4,30.10,NW,324,0.0,0.0,89,0.00,,,0.00,meteohub,2013-01-28 22:22:00,
2013-01-28 17:27:00,18.1,15.6,30.09,NNW,341,0.0,1.0,90,0.00,,,0.00,meteohub,2013-01-28 22:27:00,
2013-01-28 17:32:00,18.1,15.6,30.09,NNW,341,0.0,1.0,90,0.00,,,0.00,meteohub,2013-01-28 22:32:00,
2013-01-28 17:37:00,18.3,15.8,30.10,NNW,341,1.0,1.0,90,0.00,,,0.00,meteohub,2013-01-28 22:37:00,
2013-01-28 17:42:00,18.3,15.6,30.10,NNW,339,0.0,2.0,89,0.00,,,0.00,meteohub,2013-01-28 22:42:00,
2013-01-28 17:47:00,18.3,15.6,30.10,NNW,339,0.0,2.0,89,0.00,,,0.00,meteohub,2013-01-28 22:47:00,
2013-01-28 17:52:00,18.3,15.6,30.10,NNW,339,0.0,2.0,89,0.00,,,0.00,meteohub,2013-01-28 22:52:00,
2013-01-28 17:57:00,18.5,15.8,30.09,NNW,339,0.0,0.0,89,0.00,,,0.00,meteohub,2013-01-28 22:57:00,
2013-01-28 18:02:00,18.5,15.8,30.10,NNW,339,0.0,0.0,89,0.00,,,0.00,meteohub,2013-01-28 23:02:00,
2013-01-28 18:07:00,18.5,15.8,30.10,NNW,339,0.0,0.0,89,0.00,,,0.00,meteohub,2013-01-28 23:07:00,
2013-01-28 18:12:00,18.5,16.0,30.10,NNW,339,0.0,0.0,90,0.00,,,0.00,meteohub,2013-01-28 23:12:00,
2013-01-28 18:17:00,18.7,16.2,30.10,NNW,339,0.0,0.0,90,0.00,,,0.00,meteohub,2013-01-28 23:17:00,
2013-01-28 18:22:00,18.7,16.2,30.10,NNW,339,0.0,0.0,90,0.00,,,0.00,meteohub,2013-01-28 23:22:00,
2013-01-28 18:27:00,18.7,16.2,30.09,NNW,339,0.0,0.0,90,0.00,,,0.00,meteohub,2013-01-28 23:27:00,
2013-01-28 18:32:00,18.7,16.2,30.09,NNW,339,0.0,0.0,90,0.00,,,0.00,meteohub,2013-01-28 23:32:00,
2013-01-28 18:37:00,18.7,16.2,30.10,NNW,339,0.0,0.0,90,0.00,,,0.00,meteohub,2013-01-28 23:37:00,
2013-01-28 18:42:00,18.7,16.2,30.09,NNW,339,0.0,0.0,90,0.00,,,0.00,meteohub,2013-01-28 23:42:00,
2013-01-28 18:47:00,18.7,16.2,30.09,NNW,339,0.0,0.0,90,0.00,,,0.00,meteohub,2013-01-28 23:47:00,
2013-01-28 18:53:00,18.7,16.2,30.09,NNW,339,0.0,0.0,90,0.00,,,0.00,meteohub,2013-01-28 23:53:00,
2013-01-28 18:58:00,18.7,16.2,30.08,NNW,339,0.0,0.0,90,0.00,,,0.00,meteohub,2013-01-28 23:58:00,
2013-01-28 19:03:00,18.7,16.2,30.08,NNW,339,0.0,0.0,90,0.00,,,0.00,meteohub,2013-01-29 00:03:00,
2013-01-28 19:08:00,18.7,16.5,30.07,NNW,339,0.0,0.0,91,0.00,,,0.00,meteohub,2013-01-29 00:08:00,
2013-01-28 19:13:00,18.7,16.5,30.08,NNW,339,0.0,0.0,91,0.00,,,0.00,meteohub,2013-01-29 00:13:00,
2013-01-28 19:18:00,18.7,16.5,30.08,NNW,339,0.0,0.0,91,0.00,,,0.00,meteohub,2013-01-29 00:18:00,
2013-01-28 19:23:00,18.7,16.5,30.07,NNW,339,0.0,0.0,91,0.00,,,0.00,meteohub,2013-01-29 00:23:00,
2013-01-28 19:28:00,18.7,16.5,30.07,NNW,339,0.0,0.0,91,0.00,,,0.00,meteohub,2013-01-29 00:28:00,
2013-01-28 19:33:00,18.7,16.5,30.07,NNW,339,0.0,0.0,91,0.00,,,0.00,meteohub,2013-01-29 00:33:00,
2013-01-28 19:38:00,18.7,16.5,30.07,NNW,339,0.0,0.0,91,0.00,,,0.00,meteohub,2013-01-29 00:38:00,
2013-01-28 19:43:00,18.9,16.7,30.06,NNW,339,0.0,0.0,91,0.00,,,0.00,meteohub,2013-01-29 00:43:00,
2013-01-28 19:48:00,18.9,16.7,30.07,NNW,339,0.0,0.0,91,0.00,,,0.00,meteohub,2013-01-29 00:48:00,
2013-01-28 19:53:00,18.9,16.7,30.06,NNW,339,0.0,0.0,91,0.00,,,0.00,meteohub,2013-01-29 00:53:00,
2013-01-28 19:58:00,18.9,16.7,30.06,NNW,339,0.0,0.0,91,0.00,,,0.00,meteohub,2013-01-29 00:58:00,
2013-01-28 20:03:00,18.9,16.7,30.06,NNW,339,0.0,0.0,91,0.00,,,0.00,meteohub,2013-01-29 01:03:00,
2013-01-28 20:08:00,19.0,16.9,30.06,NNW,339,0.0,0.0,91,0.00,,,0.00,meteohub,2013-01-29 01:08:00,
2013-01-28 20:13:00,19.0,16.9,30.06,NNW,339,0.0,0.0,91,0.00,,,0.00,meteohub,2013-01-29 01:13:00,
2013-01-28 20:18:00,19.0,16.9,30.05,NNW,339,0.0,0.0,91,0.00,,,0.00,meteohub,2013-01-29 01:18:00,
2013-01-28 20:23:00,19.0,16.9,30.06,NNW,339,0.0,0.0,91,0.00,,,0.00,meteohub,2013-01-29 01:23:00,
2013-01-28 20:28:00,19.2,17.1,30.05,NNW,339,0.0,0.0,91,0.00,,,0.00,meteohub,2013-01-29 01:28:00,
2013-01-28 20:33:00,19.2,17.1,30.05,NNW,339,0.0,0.0,91,0.00,,,0.00,meteohub,2013-01-29 01:33:00,
2013-01-28 20:38:00,19.2,17.1,30.05,NNW,339,0.0,0.0,91,0.00,,,0.00,meteohub,2013-01-29 01:38:00,
2013-01-28 20:43:00,19.2,17.1,30.05,NNW,339,0.0,0.0,91,0.00,,,0.00,meteohub,2013-01-29 01:43:00,
2013-01-28 20:49:00,19.4,17.2,30.05,NNW,339,0.0,0.0,91,0.00,,,0.00,meteohub,2013-01-29 01:49:00,
2013-01-28 20:54:00,19.4,17.2,30.05,NNW,339,0.0,0.0,91,0.00,,,0.00,meteohub,2013-01-29 01:54:00,
2013-01-28 20:59:00,19.6,17.4,30.05,NNW,339,0.0,0.0,91,0.00,,,0.00,meteohub,2013-01-29 01:59:00,
2013-01-28 21:04:00,19.6,17.4,30.04,NNW,339,0.0,0.0,91,0.00,,,0.00,meteohub,2013-01-29 02:04:00,
2013-01-28 21:09:00,19.6,17.4,30.04,NNW,339,0.0,0.0,91,0.00,,,0.00,meteohub,2013-01-29 02:09:00,
2013-01-28 21:14:00,19.6,17.4,30.04,NNW,339,0.0,0.0,91,0.00,,,0.00,meteohub,2013-01-29 02:14:00,
2013-01-28 21:19:00,19.6,17.4,30.04,NNW,339,0.0,0.0,91,0.00,,,0.00,meteohub,2013-01-29 02:19:00,
2013-01-28 21:24:00,19.6,17.4,30.03,NNW,339,0.0,0.0,91,0.00,,,0.00,meteohub,2013-01-29 02:24:00,
2013-01-28 21:29:00,19.6,17.4,30.03,NNW,339,0.0,0.0,91,0.00,,,0.00,meteohub,2013-01-29 02:29:00,
2013-01-28 21:34:00,19.6,17.4,30.04,NNW,339,0.0,0.0,91,0.00,,,0.00,meteohub,2013-01-29 02:34:00,
2013-01-28 21:39:00,19.6,17.4,30.03,NNW,339,0.0,0.0,91,0.00,,,0.00,meteohub,2013-01-29 02:39:00,
2013-01-28 21:44:00,19.6,17.4,30.03,NNW,339,0.0,0.0,91,0.00,,,0.00,meteohub,2013-01-29 02:44:00,
2013-01-28 21:49:00,19.8,17.6,30.04,NNW,339,0.0,1.0,91,0.00,,,0.00,meteohub,2013-01-29 02:49:00,
2013-01-28 21:54:00,19.8,17.6,30.04,NNW,339,0.0,1.0,91,0.00,,,0.00,meteohub,2013-01-29 02:54:00,
2013-01-28 21:59:00,19.8,17.6,30.03,NNW,339,0.0,1.0,91,0.00,,,0.00,meteohub,2013-01-29 02:59:00,
2013-01-28 22:04:00,19.8,17.6,30.03,NNW,339,0.0,1.0,91,0.00,,,0.00,meteohub,2013-01-29 03:04:00,
2013-01-28 22:09:00,19.8,17.6,30.03,NNW,339,0.0,1.0,91,0.00,,,0.00,meteohub,2013-01-29 03:09:00,
2013-01-28 22:14:00,19.8,17.6,30.03,NNW,339,0.0,0.0,91,0.00,,,0.00,meteohub,2013-01-29 03:14:00,
2013-01-28 22:19:00,19.8,17.6,30.03,NNW,339,0.0,0.0,91,0.00,,,0.00,meteohub,2013-01-29 03:19:00,
2013-01-28 22:24:00,19.8,17.6,30.03,NNW,339,0.0,0.0,91,0.00,,,0.00,meteohub,2013-01-29 03:24:00,
2013-01-28 22:29:00,19.8,17.8,30.03,NNW,339,0.0,0.0,92,0.00,,,0.00,meteohub,2013-01-29 03:29:00,
2013-01-28 22:34:00,19.8,17.6,30.03,NNW,339,0.0,0.0,91,0.00,,,0.00,meteohub,2013-01-29 03:34:00,
2013-01-28 22:40:00,19.8,17.6,30.03,NNW,339,0.0,0.0,91,0.00,,,0.00,meteohub,2013-01-29 03:40:00,
2013-01-28 22:45:00,19.8,17.6,30.03,NNW,339,0.0,0.0,91,0.00,,,0.00,meteohub,2013-01-29 03:45:00,
2013-01-28 22:50:00,19.8,17.6,30.03,NNW,339,0.0,0.0,91,0.00,,,0.00,meteohub,2013-01-29 03:50:00,
2013-01-28 22:55:00,19.8,17.6,30.03,NNW,339,0.0,0.0,91,0.00,,,0.00,meteohub,2013-01-29 03:55:00,
2013-01-28 23:00:00,19.8,17.6,30.03,NNW,339,0.0,0.0,91,0.00,,,0.00,meteohub,2013-01-29 04:00:00,
2013-01-28 23:05:00,19.8,17.6,30.03,NNW,339,0.0,0.0,91,0.00,,,0.00,meteohub,2013-01-29 04:05:00,
2013-01-28 23:10:00,19.9,17.8,30.03,NNW,339,0.0,0.0,91,0.00,,,0.00,meteohub,2013-01-29 04:10:00,
2013-01-28 23:15:00,19.9,17.8,30.03,NNW,339,0.0,0.0,91,0.00,,,0.00,meteohub,2013-01-29 04:15:00,
2013-01-28 23:20:00,19.9,17.8,30.03,NNW,339,0.0,0.0,91,0.00,,,0.00,meteohub,2013-01-29 04:20:00,
2013-01-28 23:25:00,19.9,18.0,30.03,NNW,339,0.0,0.0,92,0.00,,,0.00,meteohub,2013-01-29 04:25:00,
2013-01-28 23:30:00,19.9,18.0,30.04,NNW,339,0.0,0.0,92,0.00,,,0.00,meteohub,2013-01-29 04:30:00,
2013-01-28 23:35:00,19.9,18.0,30.04,NNW,339,0.0,0.0,92,0.00,,,0.00,meteohub,2013-01-29 04:35:00,
2013-01-28 23:40:00,20.1,18.1,30.04,NNW,339,0.0,0.0,92,0.00,,,0.00,meteohub,2013-01-29 04:40:00,
2013-01-28 23:45:00,20.1,18.1,30.04,NNW,339,0.0,0.0,92,0.00,,,0.00,meteohub,2013-01-29 04:45:00,
2013-01-28 23:50:00,20.1,18.1,30.04,NNW,339,0.0,0.0,92,0.00,,,0.00,meteohub,2013-01-29 04:50:00,
2013-01-28 23:55:00,20.1,18.1,30.04,NNW,339,0.0,0.0,92,0.00,,,0.00,meteohub,2013-01-29 04:55:00,